St. Cloud, MN

4:33 PM CDT on October 23, 2017 (GMT -0500)
Saint Cloud Regional

Weather History for KSTC - April, 2013

Change the Weather History Date:

Thursday, April 25, 2013

  Actual Average Record
Temperature  
Mean Temperature 39 °F 49 °F  
Max Temperature 49 °F 62 °F 88 °F (1962)
Min Temperature 28 °F 37 °F 21 °F (1907)
Degree Days  
Heating Degree Days 26 16  
Month to date heating degree days 814 544  
Since 1 July heating degree days 8412 8094  
Cooling Degree Days 0 0  
Month to date cooling degree days 0 0  
Year to date cooling degree days 0 0  
Moisture  
Dew Point 26 °F    
Average Humidity 65    
Maximum Humidity 92    
Minimum Humidity 37    
Precipitation  
Precipitation T in 0.10 in 1.17 in (1954)
Month to date precipitation 2.90 2.06  
Year to date precipitation 7.31 4.85  
Snow  
Snow 0.00 in 0.10 in 6.20 in (1950)
Month to date snowfall 24.4 2.8  
Since 1 July snowfall 78.5 45.5  
Snow Depth T in    
Sea Level Pressure  
Sea Level Pressure 30.14 in    
Wind  
Wind Speed 9 mph (WSW)    
Max Wind Speed 17 mph    
Max Gust Speed 23 mph    
Visibility 10 miles    
Events      
T = Trace of Precipitation, MM = Missing Value Source: NWS Daily Summary

Daily Weather History Graph

Daily Weather History Graph

Search for Another Location

Airport or City:

Trip Planner

Search our weather history database for the weather conditions in past years. The results will help you decide how hot, cold, wet, or windy it might be!

Date:

Astronomy

Apr. 25, 2013 Rise Set
Actual Time 6:13 AM CDT 8:15 PM CDT
Civil Twilight 5:41 AM CDT 8:48 PM CDT
Nautical Twilight 5:01 AM CDT 9:27 PM CDT
Astronomical Twilight 4:18 AM CDT 10:11 PM CDT
Moon 8:31 PM CDT (4/25) 5:57 AM CDT (4/25)
Length of Visible Light 15h 06m
Length of Day
14h 02m
Full, 100% of the Moon is Illuminated
Apr 25
Full
Apr 25
Full
May 2
Last Quarter
May 9
New
May 17
First Quarter

Hourly Weather History & Observations

Time (CDT) Temp. Windchill Dew Point Humidity Pressure Visibility Wind Dir Wind Speed Gust Speed Precip Events Conditions
12:53 AM 33.1 °F 23.9 °F 30.0 °F 89% 30.04 in 10.0 mi WNW 12.7 mph 20.7 mph 0.00 in   Overcast
1:53 AM 32.0 °F 23.0 °F 28.0 °F 85% 30.06 in 10.0 mi WNW 11.5 mph - N/A   Mostly Cloudy
2:12 AM 32.0 °F 22.5 °F 28.4 °F 87% 30.02 in 10.0 mi WNW 12.7 mph - N/A   Mostly Cloudy
2:37 AM 32.0 °F 25.6 °F 28.4 °F 87% 30.02 in 10.0 mi WNW 6.9 mph - N/A   Mostly Cloudy
2:51 AM 30.2 °F 21.9 °F 26.6 °F 86% 30.03 in 10.0 mi WNW 9.2 mph - N/A   Scattered Clouds
2:53 AM 30.9 °F 23.5 °F 27.0 °F 85% 30.08 in 10.0 mi WNW 8.1 mph - N/A   Scattered Clouds
3:04 AM 32.0 °F 24.8 °F 28.4 °F 87% 30.03 in 10.0 mi WNW 8.1 mph - N/A   Mostly Cloudy
3:53 AM 30.0 °F 23.2 °F 27.0 °F 88% 30.09 in 10.0 mi WNW 6.9 mph - N/A   Scattered Clouds
4:53 AM 28.9 °F 19.8 °F 26.1 °F 89% 30.12 in 10.0 mi West 10.4 mph - N/A   Clear
5:53 AM 28.0 °F 20.8 °F 25.0 °F 88% 30.14 in 10.0 mi West 6.9 mph - N/A   Clear
6:53 AM 28.0 °F 20.8 °F 25.0 °F 88% 30.16 in 10.0 mi West 6.9 mph - N/A   Clear
7:48 AM 30.2 °F 22.6 °F 26.6 °F 86% 30.14 in 10.0 mi West 8.1 mph - N/A   Mostly Cloudy
7:53 AM 30.0 °F 22.4 °F 26.1 °F 85% 30.20 in 10.0 mi West 8.1 mph - N/A   Mostly Cloudy
8:27 AM 30.2 °F 20.8 °F 24.8 °F 80% 30.15 in 10.0 mi NW 11.5 mph - N/A   Overcast
8:53 AM 30.9 °F 24.3 °F 26.1 °F 82% 30.22 in 10.0 mi West 6.9 mph - N/A   Overcast
9:53 AM 32.0 °F 26.4 °F 26.1 °F 79% 30.23 in 10.0 mi WNW 5.8 mph - N/A   Mostly Cloudy
10:32 AM 35.6 °F 28.0 °F 26.6 °F 70% 30.18 in 10.0 mi SW 10.4 mph - N/A   Scattered Clouds
10:53 AM 36.0 °F 28.5 °F 26.1 °F 67% 30.24 in 10.0 mi WSW 10.4 mph - N/A   Partly Cloudy
11:53 AM 39.0 °F 32.8 °F 26.1 °F 60% 30.23 in 10.0 mi WSW 9.2 mph - N/A   Partly Cloudy
12:53 PM 39.9 °F 35.1 °F 26.1 °F 58% 30.22 in 10.0 mi West 6.9 mph - N/A   Mostly Cloudy
1:10 PM 41.0 °F 38.0 °F 26.6 °F 57% 30.15 in 10.0 mi Variable 4.6 mph - N/A   Mostly Cloudy
1:53 PM 42.1 °F 37.1 °F 26.1 °F 53% 30.20 in 10.0 mi South 8.1 mph - N/A   Partly Cloudy
2:53 PM 46.0 °F 41.0 °F 23.0 °F 40% 30.19 in 10.0 mi SW 10.4 mph - N/A   Clear
3:53 PM 46.9 °F - 21.9 °F 37% 30.17 in 10.0 mi South 8.1 mph - N/A   Clear
4:53 PM 48.0 °F - 24.1 °F 39% 30.17 in 10.0 mi South 11.5 mph 20.7 mph N/A   Clear
5:53 PM 48.9 °F - 24.1 °F 38% 30.15 in 10.0 mi South 13.8 mph - N/A   Clear
6:53 PM 48.0 °F - 26.1 °F 42% 30.14 in 10.0 mi SSE 9.2 mph - N/A   Scattered Clouds
7:53 PM 45.0 °F 41.2 °F 28.9 °F 53% 30.14 in 10.0 mi SSE 6.9 mph - N/A   Clear
8:53 PM 45.0 °F 40.6 °F 28.9 °F 53% 30.13 in 10.0 mi SE 8.1 mph - N/A   Clear
9:53 PM 44.1 °F 40.1 °F 28.0 °F 53% 30.13 in 10.0 mi ESE 6.9 mph - N/A   Clear
10:53 PM 44.1 °F 39.0 °F 27.0 °F 51% 30.11 in 10.0 mi ESE 9.2 mph - N/A   Mostly Cloudy
11:53 PM 44.1 °F 39.5 °F 27.0 °F 51% 30.09 in 10.0 mi ESE 8.1 mph - N/A   Scattered Clouds